Regional Weather Roundup
Issued by NWS

Home | Current Version | Previous Version | Text Only | Print | Product List | Glossary Off
Versions: 1 2 3 4 5 6 7 8 9 10 11 12 13 14 15 16 17 18 19 20 21 22 23 24 25 26 27 28 29 30 31 32 33 34 35 36 37 38 39 40 41 42 43 44 45 46 47 48 49 50

000
ASUS43 KOAX 010102
RWRNE

WEATHER ROUNDUP FOR NEBRASKA
NATIONAL WEATHER SERVICE OMAHA NE
800 PM CDT TUE MAY 31 2016

NOTES: SATELLITE DATA IS BEING USED TO AUGMENT CLOUD COVER ABOVE
       12000 FEET.
       "FAIR" INDICATES FEW OR NO CLOUDS BELOW 12,000 FEET WITH NO
       SIGNIFICANT WEATHER AND/OR OBSTRUCTIONS TO VISIBILITY.

  * THESE STATIONS DO NOT REPORT WEATHER SUCH AS RAIN...SNOW OR FOG.

NEZ001>004-019>022-054>056-010200-
NEBRASKA PANHANDLE

CITY           SKY/WX    TMP DP  RH WIND       PRES   REMARKS
SCOTTSBLUFF    MOSUNNY   67  35  30 N20G26    30.06R
ALLIANCE       SUNNY     63  38  39 N23G31    30.05R
CHADRON        SUNNY     65  37  35 NW22G28   30.05R
SIDNEY         CLOUDY    65  44  46 SW6       30.07R
$$

NEZ057>060-069>072-079>082-010200-
SOUTHWEST NEBRASKA

CITY           SKY/WX    TMP DP  RH WIND       PRES   REMARKS
NORTH PLATTE   SUNNY     67  47  48 W9        30.00R
IMPERIAL       MOSUNNY   69  45  41 W7        30.04R
MCCOOK         PTSUNNY   67  51  56 S3        30.02R
$$

NEZ005>010-023>029-035>040-094-010200-
NORTH CENTRAL NEBRASKA

CITY           SKY/WX    TMP DP  RH WIND       PRES   REMARKS
VALENTINE      SUNNY     64  42  44 N16G28    29.98R
BROKEN BOW     SUNNY     70  45  40 W9        29.97R
$$

NEZ041-046>049-061>064-073>077-083>087-010200-
SOUTH CENTRAL NEBRASKA

CITY           SKY/WX    TMP DP  RH WIND       PRES   REMARKS
GRAND ISLAND   CLEAR     70  47  43 W6        29.97R
HASTINGS       CLEAR     70  48  45 CALM      29.97R
KEARNEY *      CLEAR     72  46  40 W5        29.99R
YORK           CLEAR     73  43  33 CALM      29.96R
$$

NEZ011>018-030>034-042>045-010200-
NORTHEAST NEBRASKA

CITY           SKY/WX    TMP DP  RH WIND       PRES   REMARKS
NORFOLK        CLEAR     70  49  47 SW6       29.92R
TEKAMAH        CLEAR     76  39  26 NW6       29.91R
$$

NEZ050>053-065>068-078-088>093-010200-
SOUTHEAST NEBRASKA

CITY           SKY/WX    TMP DP  RH WIND       PRES   REMARKS
LINCOLN        CLEAR     74  50  42 N6        29.93R
OMAHA EPPLEY   MOCLDY    76  54  46 NW5       29.91S
FALLS CITY     PTCLDY    76  60  57 N6        29.90R
$$

NEZ044-045-051>053-067-010200-
OMAHA AREA

CITY           SKY/WX    TMP DP  RH WIND       PRES   REMARKS
OMAHA EPPLEY   MOCLDY    76  54  46 NW5       29.91S
$$



USA.gov is the U.S. government's official web portal to all federal, state and local government web resources and services.